PulseSat

PulseSat

COSMOS 2501 (702K)

Last updated on March 21, 2019, 3:13 a.m. UTC

1 40315U 14075A   19078.65429427  .00000039  00000-0  00000-0 0  9996
2 40315  64.0876 282.8430 0014546 204.5766 132.5470  2.13098587 33453
UTC
Height (km)
Latitude
Longitude
Inclination
Orbital Period

Next 30 passes for location: Hong Kong

Rise time Rise Azimuth (degrees) Set time Set Azimuth (degrees) Duration Max altitude (degrees)

No matching passes for this satellites

PulseSat

PulseSat is the new satellites software and hardware trackering solution by Pulsely.
Satellite Two Line Element Set source: US Air Force Space Command

Download PulseSat for iOS
© 2017 Pulsely Limited